#timestamp,LO_Frequency,Hit,StdDev 
1592683215.1,286047002.8,P
1592683216.0,286047002.8,Y
1592683235.8,286046996.8,P
1592683255.6,286046996.8,N
1592683275.5,286046999.4,N
1592683295.3,286046999.4,N
1592683315.2,286046998.3,N
1592683335.9,286046998.4,N
1592683355.7,286046997.0,N
1592683375.6,286046997.5,N
1592683395.4,286046997.1,N
1592683415.2,286046996.6,N
1592683435.1,286046997.3,N
1592683436.0,286046997.3,N
1592683455.8,286046999.6,N
1592683475.7,286046998.5,N
1592683495.5,286046998.7,N
1592683515.3,286046997.8,N
1592683535.2,286046997.7,N
1592683555.0,286046996.7,N
1592683555.9,286046996.7,N
1592683575.8,286046999.2,N
1592683595.6,286046999.5,N
1592683615.4,286046996.6,N
1592683635.3,286046999.5,N
1592683655.1,286046998.7,N
1592683675.8,286046998.7,N
1592683695.7,286046996.6,N
1592683715.5,286046999.4,N
1592683735.4,286046998.7,N
1592683755.2,286046999.4,N
1592683775.0,286046998.8,N
1592683775.9,286046998.8,N
1592683795.8,286046999.2,N
1592683815.6,286046998.8,N
1592683835.4,286046999.0,N
1592683855.3,286046997.0,Y
1592683875.1,286046998.5,P
1592683895.9,286046998.1,P
1592683915.7,286047000.7,P
1592683935.5,286047001.1,N
1592683955.4,286046998.3,N
1592683975.2,286047000.6,N
1592683995.0,286047001.2,N
1592683995.9,286047001.2,N
1592684015.8,286046998.7,N
1592684035.6,286046998.5,N
1592684055.5,286046996.8,N
1592684075.3,286046997.1,N
1592684095.1,286046997.4,N
1592684115.9,286046997.7,N
1592684135.7,286046997.2,N
1592684155.5,286046998.9,N
1592684175.4,286046998.4,N
1592684195.2,286046999.2,N
1592684215.1,286046998.8,N
1592684216.0,286046998.8,N
1592684235.8,286046999.0,N
1592684255.6,286046996.7,N
1592684275.5,286046999.1,N
1592684295.3,286046999.6,N
1592684315.1,286046998.8,N
1592684335.9,286047001.1,N
1592684355.7,286046998.2,N
1592684375.6,286047000.4,N
1592684395.4,286047000.0,N
1592684415.2,286047000.7,N
1592684435.1,286046999.7,N
1592684436.0,286046999.7,N
1592684455.8,286047000.2,N
1592684475.6,286047000.0,N
1592684495.5,286047000.0,N
1592684515.3,286047000.6,N
1592684535.2,286047000.8,N
1592684555.9,286047001.0,N
1592684575.7,286046996.9,N
1592684595.6,286046998.9,N
1592684615.4,286046998.2,N
1592684635.2,286046998.9,N
1592684655.1,286047001.2,N
1592684656.0,286047001.2,N
1592684675.8,286046999.9,N
1592684695.7,286047000.3,N
1592684715.5,286047001.2,N
1592684735.3,286046999.0,N
1592684755.2,286047000.8,N
1592684775.9,286047001.0,N
1592684795.7,286046998.8,N
1592684815.6,286046999.9,N
1592684835.4,286047000.1,N
1592684855.3,286047002.4,N
1592684875.1,286046998.6,N
1592684876.0,286046998.6,N
1592684895.8,286046999.6,N
1592684915.7,286046999.6,N
1592684935.5,286046997.0,N
1592684955.3,286046999.5,N
1592684975.2,286046998.8,N
1592684995.0,286047001.1,N
1592684995.9,286047001.1,N
1592685015.8,286047000.7,N
1592685035.6,286047001.0,N
1592685055.4,286046996.6,N
1592685075.3,286046998.5,N
1592685095.1,286046999.2,N
1592685115.8,286047001.2,N
1592685135.7,286047000.5,N
1592685155.5,286046999.9,N
1592685175.3,286047002.5,N
1592685195.2,286046998.6,N
1592685215.0,286046998.3,N
1592685215.9,286046998.3,N
1592685235.8,286046999.4,N
1592685255.6,286047000.8,N
1592685275.4,286047002.5,N
1592685295.3,286047002.3,N
1592685315.1,286047002.5,N
1592685335.9,286047001.9,N
1592685355.7,286047004.4,N
1592685375.5,286047002.0,N
1592685395.4,286047002.6,N
1592685415.2,286047001.8,N
1592685435.0,286047002.8,N
1592685435.9,286047002.8,N
1592685455.8,286046998.7,N
1592685475.6,286046998.7,N
1592685495.5,286047001.1,N
1592685515.3,286047000.4,N
1592685535.1,286047002.3,N
1592685555.9,286047002.6,N
1592685575.7,286047001.9,N
1592685595.5,286047002.0,N
1592685615.4,286047002.5,N
1592685635.2,286047001.6,N
1592685655.1,286047002.2,N
1592685656.0,286047002.2,N
1592685675.8,286047002.5,N
1592685695.6,286047002.5,N
1592685715.5,286047001.6,N
1592685735.3,286047003.9,N
1592685755.1,286047002.4,N
1592685775.9,286047004.2,N
1592685795.7,286047005.8,Y
1592685815.6,286047002.8,P
1592685835.4,286047002.7,P
1592685855.2,286047000.2,N
1592685875.1,286047000.1,N
1592685876.0,286047000.1,N
1592685895.8,286047002.3,N
1592685915.7,286047002.0,N
1592685935.5,286047002.5,N
1592685955.3,286047002.7,N
1592685975.2,286047000.5,N
1592685995.0,286047000.2,N
1592685995.9,286047000.2,N
1592686015.7,286047001.1,N
1592686035.6,286047002.8,N
1592686055.4,286047002.4,N
1592686075.3,286046998.5,N
1592686095.1,286047001.0,N
1592686096.0,286047001.0,N
1592686115.8,286047000.7,N
1592686135.7,286047000.3,N
1592686155.5,286047002.3,N
1592686175.3,286047001.6,N
1592686195.2,286047001.9,N
1592686215.0,286047004.4,Y
1592686215.9,286047004.4,P
1592686235.8,286047001.0,N
1592686255.6,286047000.7,N
1592686275.4,286046999.0,N
1592686295.3,286046998.9,N
1592686315.1,286046999.4,N
1592686335.8,286046998.4,N
1592686355.7,286047000.7,N
1592686375.5,286046999.2,N
1592686395.4,286046998.1,N
1592686415.2,286047000.1,N
1592686435.0,286047002.2,N
1592686435.9,286047002.2,N
1592686455.8,286046999.8,N
1592686475.6,286047000.1,N
1592686495.4,286047002.6,N
1592686515.3,286047002.6,N
1592686535.1,286047000.3,N
1592686555.9,286047002.7,N
1592686575.7,286047000.6,N
1592686595.5,286046999.8,N
1592686615.4,286047002.5,N
1592686635.2,286046999.8,N
1592686655.0,286047002.5,N
1592686655.9,286047002.5,N
1592686675.8,286047002.7,N
1592686695.6,286047002.5,N
1592686715.5,286047002.6,N
1592686735.3,286047002.1,N
1592686755.1,286047001.7,N
1592686775.9,286047004.0,N
1592686795.7,286047003.8,N
